sat.trackr.live / text

‹ back to catalog

STARLINK-31945

NORAD 59870 · 2024-098N

PAYLOAD ACTIVE UNKNOWN

§ Identity

Operator
Country
US
Launch date
2024-05-24
Launch site
AFETR
Launch vehicle
Mass (kg)
RCS (m²)

Purposes: comms

External: N2YO · Heavens-Above · Gunter

§ Orbital elements

Epoch: 2026-05-25T04:41:23.284032Z

Period
94.27 min
Inclination
43.0017°
Eccentricity
0.0001687
Mean motion
15.27569411 rev/d
Perigee alt
481.9 km
Apogee alt
484.2 km
Semi-major
6,861.2 km
B*
6.0291e-5
RAAN
201.8695°
Arg perigee
263.8646°
Mean anomaly
96.2013°
Rev number
11,359

§ Raw data

STARLINK-319451 59870U 24098N   26145.19540838  .00001397  00000+0  60291-4 0  99992 59870  43.0017 201.8695 0001687 263.8646  96.2013 15.27569411113595

JSON: /api/v1/satellites/59870 · /tle

For live sub-satellite position, see the globe view (requires WebGL).

§ Visibility from observer

Set your observer location to see the next 7 days of passes ≥ 10°. The values pass through the URL so the page stays shareable.

No JS? Fill the form by hand. The geolocation button needs JavaScript.